This demonstration page uses our WeatherBlox Daily Observations layout. Learn more.

Left ArrowRight Arrow

39.08367, -84.50855

Hourly Observations for May 9, 2021

Temp ( °F °C ) Dew Point ( °F °C ) Humidity (%) Winds ( mph kmh ) Pressure ( in mb ) Visibility ( mi km ) Precip ( " mm )
12:53 am 00:53 Cloudy with Light Rain 52 11.1 43 6.1 72 72 ENE 6 9 30.04 1017 10 16.0934 0.001 0.001
1:53 am 01:53 Cloudy with Light Rain 49 9.4 47 8.3 93 93 N N/A 30.06 1018 10 16.0934 0.02 0.508
2:53 am 02:53 Cloudy with Light Rain 49 9.4 46 7.8 90 90 ENE 3 6 30.02 1017 10 16.0934 0.02 0.508
3:53 am 03:53 Cloudy 49 9.4 43 6.1 80 80 E 9 15 29.99 1016 10 16.0934 0.001 0.001
4:53 am 04:53 Cloudy 49 9.4 42 5.6 77 77 E 6 9 29.94 1014 10 16.0934 N/A
5:53 am 05:53 Cloudy with Light Rain 50 10 41 5 71 71 E 7 11 29.89 1012 10 16.0934 0.001 0.001
6:53 am 06:53 Cloudy 50 10 40 4.4 68 68 SE 9 15 29.85 1011 10 16.0934 0.001 0.001
7:53 am 07:53 Cloudy 51 10.6 41 5 69 69 E 3 6 29.82 1010 10 16.0934 N/A
8:53 am 08:53 Mostly Cloudy 53 11.7 42 5.6 66 66 VRB 3 6 29.76 1008 10 16.0934 N/A
9:53 am 09:53 Cloudy with Light Rain 53 11.7 44 6.7 72 72 VRB 6 9 29.7 1006 7 11.26538 0.01 0.254
10:36 am 10:36 Cloudy with Light Thunderstorms 52 11.1 47 8.3 83 83 VRB 5 7 29.78 1008 6 9.65604 0.03 0.762
10:53 am 10:53 Cloudy with Light Thunderstorms 50 10 48 8.9 93 93 VRB 5 7 29.73 1007 4 6.43736 0.11 2.794
11:23 am 11:23 Cloudy with Rain 49 9.4 48 8.9 97 97 VRB 5 7 29.73 1007 3 4.82802 0.18 4.572
11:53 am 11:53 Cloudy with Rain 50 10 49 9.4 96 96 VRB 3 6 29.7 1006 3 4.82802 0.34 8.636
12:53 pm 12:53 Cloudy with Light Rain 54 12.2 53 11.7 97 97 N N/A 29.62 1003 4 6.43736 0.07 1.778
1:53 pm 13:53 Cloudy 65 18.3 59 15 81 81 SW 14 22 29.63 1003 8 12.87472 0.001 0.001
2:53 pm 14:53 Cloudy 65 18.3 59 15 81 81 SSW 21 33 29.62 1003 10 16.0934 N/A
3:53 pm 15:53 Cloudy 65 18.3 59 15 81 81 SSW 23 37 29.62 1003 10 16.0934 N/A
4:29 pm 16:29 Cloudy with Rain 62 16.7 61 16.1 96 96 W 15 24 29.65 1004 1 1.60934 0.17 4.318
6:53 pm 18:53 Cloudy 49 9.4 45 7.2 86 86 NNW 17 28 29.83 1010 10 16.0934 N/A
7:53 pm 19:53 Cloudy 46 7.8 41 5 83 83 N 16 26 29.9 1012 10 16.0934 N/A
8:53 pm 20:53 Cloudy 46 7.8 41 5 83 83 N 10 17 29.95 1014 10 16.0934 N/A
9:53 pm 21:53 Cloudy 46 7.8 41 5 83 83 N 13 20 29.98 1015 10 16.0934 N/A
10:53 pm 22:53 Cloudy 45 7.2 39 3.9 80 80 NNE 14 22 30.01 1016 10 16.0934 N/A
11:53 pm 23:53 Cloudy 45 7.2 39 3.9 80 80 NNE 7 11 30.02 1017 10 16.0934 N/A

Powered by AerisWeather